Temp
63 61 61 61 62 63 63 62 63 63 64 65 64 65 65 65 64 64 64 63 63 63 63 61 60 60 61 60 59 59 60 59 59 59 58 59 58 55 58 57 57 57 58 57 58 59 60 57 56 60 60 58 59 58 59 60 60 59 58 59 62 62 61
63 63 63 63 62 62 61 61 61 62 63 63 64 64 64 65 64 63 63 63 62 62 63 61 60 60 59 58 58 58 57 57 58 57 58 57 58 57 57 56 57 57 56 56 56 58 58 57 55 55 55 57 57 57 58 59 60 60 60 60 61 62 61
63 63 64 62 62 61 60 60 62 62 63 62 63 64 64 64 64 64 63 62 61 61 61 60 59 58 58 58 57 57 57 56 57 56 56 56 57 56 57 57 57 57 57 56 56 56 56 57 55 55 54 54 53 54 57 57 59 60 62 61 61 62 61
60 61 61 61 61 61 61 61 62 62 63 62 62 62 63 63 62 63 62 61 61 60 60 60 59 59 58 57 57 56 56 55 55 55 55 55 56 55 55 56 55 55 54 53 53 55 55 54 56 55 56 58 57 55 56 58 59 61 62 61 61 61 61
61 62 62 62 62 61 60 60 62 62 61 62 62 62 61 62 61 61 61 60 60 59 59 59 59 59 58 58 57 57 56 55 56 56 55 54 54 55 54 55 54 55 55 54 55 55 55 54 55 55 56 57 58 59 59 57 60 60 61 61 62 62 62
63 64 63 61 61 61 61 61 62 61 61 61 61 60 60 60 61 60 60 59 59 59 59 59 58 58 58 57 56 56 56 55 55 55 54 53 54 54 54 55 55 55 54 55 55 55 54 55 55 54 57 58 55 57 59 59 58 61 61 62 62 62 63
63 63 62 62 61 61 62 62 62 62 61 60 60 60 60 61 61 60 59 59 59 59 58 58 58 58 58 58 56 56 55 55 55 54 54 54 54 54 55 55 54 54 54 55 55 55 54 54 53 52 53 55 55 56 57 58 59 58 60 62 63 63 62
63 63 62 61 60 60 61 61 61 62 61 61 60 60 61 60 59 60 59 59 58 58 58 57 57 57 57 57 57 55 55 55 55 55 54 54 53 53 53 54 54 54 54 55 55 54 55 53 53 52 53 53 54 55 55 58 59 56 55 61 63 62 62
63 62 60 59 59 60 60 60 60 60 61 60 60 60 60 60 59 59 59 58 58 58 58 58 57 57 56 56 56 55 54 56 54 54 54 54 53 53 53 54 54 53 54 54 55 54 54 54 54 54 54 53 51 51 54 54 55 56 60 57 61 63 62
60 58 57 58 58 59 59 59 59 59 60 60 59 60 59 60 59 59 58 58 57 57 57 57 57 57 57 56 55 55 54 55 55 54 54 54 53 54 53 53 53 53 54 54 54 54 54 55 55 54 54 52 52 50 48 50 51 51 57 59 55 59 61
58 58 58 58 59 59 59 58 58 59 59 60 60 59 59 59 59 59 58 57 57 57 57 58 58 57 56 56 56 56 56 56 55 55 54 54 54 54 53 53 54 53 54 54 53 54 54 54 54 54 54 54 53 50 49 47 49 54 53 57 58 56 60
58 58 59 59 59 59 59 59 59 59 59 60 60 59 59 59 59 58 58 58 57 57 57 57 57 57 57 55 55 55 56 56 55 54 54 54 54 54 53 52 53 53 54 53 54 54 54 55 55 55 54 54 53 51 50 50 48 54 55 52 56 59 58
59 58 58 59 59 59 60 59 59 59 59 60 60 60 60 59 59 58 58 58 57 57 57 57 57 57 56 56 56 55 55 56 55 54 54 54 54 54 53 53 53 53 54 55 54 54 54 55 55 55 55 54 53 52 51 50 48 49 55 54 55 57 59
58 59 59 59 60 59 59 59 60 60 60 59 60 59 59 60 60 59 59 58 58 57 57 56 57 57 56 55 56 55 56 56 55 54 54 53 54 54 54 54 54 53 55 54 54 55 55 55 55 55 55 55 53 53 51 50 48 49 54 57 56 56 57
60 60 59 59 59 59 58 58 59 59 59 59 60 60 60 59 59 59 59 59 58 58 58 57 57 57 56 55 55 55 55 56 55 54 54 54 54 54 54 54 54 54 55 54 54 54 55 55 55 55 55 54 54 53 52 50 50 49 48 54 54 57 56
61 60 60 59 58 58 58 58 60 59 58 58 60 60 59 59 59 60 59 58 59 58 58 58 57 57 56 56 56 55 55 56 55 54 53 54 54 54 54 53 54 54 54 54 54 54 54 54 55 54 53 54 53 53 53 52 50 49 49 50 54 54 55
61 60 59 59 57 57 57 58 59 59 59 58 58 59 59 60 59 59 58 58 58 58 58 57 57 58 57 57 56 56 56 56 55 55 54 55 55 55 54 53 53 54 54 53 54 54 54 54 54 54 54 54 54 53 53 53 53 50 50 49 52 54 54
60 59 58 58 56 56 57 58 59 59 58 58 58 58 59 60 59 59 57 58 58 58 58 58 58 57 57 57 57 56 56 56 55 55 55 54 54 55 54 54 54 55 54 53 53 53 54 53 54 54 53 55 54 54 54 54 53 53 51 50 51 54 55
59 58 57 56 56 56 57 58 58 58 59 58 58 58 58 59 60 60 60 59 59 59 59 59 59 58 58 57 57 57 56 56 56 56 55 55 55 55 54 55 54 55 54 53 52 53 53 53 53 53 53 53 54 54 53 53 53 52 52 51 51 51 54
58 58 57 56 56 57 57 57 58 58 58 58 57 57 58 58 59 60 59 59 58 58 58 59 58 58 58 58 57 57 56 55 55 55 56 56 56 55 55 55 55 55 54 54 53 52 53 53 53 53 53 52 54 52 52 53 53 52 51 51 52 53 52
58 58 57 57 56 57 57 57 58 58 58 57 57 58 57 57 57 59 58 59 59 58 58 58 58 58 58 58 57 57 56 55 55 55 55 55 55 55 55 55 55 55 55 55 54 53 52 52 53 53 54 53 53 52 52 52 52 52 51 51 51 51 52
57 57 57 56 56 56 57 57 56 57 57 57 57 58 58 57 57 57 57 57 57 58 58 57 58 57 57 57 58 57 56 56 55 55 55 55 55 55 56 55 55 56 53 50 46 46 46 47 51 52 53 53 52 51 51 52 51 51 51 51 51 52 51
56 56 56 56 56 56 56 55 55 56 56 56 56 56 57 57 57 56 56 57 57 56 57 57 53 49 51 57 57 57 56 56 56 56 55 54 54 55 55 55 54 50 49 48 47 44 43 43 44 48 51 51 51 51 50 50 50 50 50 49 50 49 49
55 55 56 56 55 55 55 55 55 55 55 54 54 54 55 56 56 57 57 56 55 56 56 55 45 43 44 47 55 57 56 56 56 56 56 55 54 54 55 56 56 53 53 52 52 44 43 42 42 41 41 42 45 48 49 48 49 49 49 49 50 50 49
55 54 55 55 55 56 55 55 54 54 53 53 53 54 54 55 56 56 56 57 56 56 56 48 41 42 42 43 49 57 57 56 55 56 56 56 56 56 55 55 55 54 54 53 54 55 51 45 42 41 41 41 41 41 42 46 47 48 48 48 48 49 49
54 53 54 54 55 55 55 54 54 53 53 53 53 53 54 54 54 55 55 56 56 56 56 43 41 41 42 42 43 51 58 57 56 56 56 56 56 56 56 56 56 55 54 49 53 55 55 55 48 44 44 45 46 44 41 39 41 47 49 48 48 48 49
53 53 54 54 53 54 53 54 53 53 53 52 52 53 53 53 53 54 55 56 55 56 56 44 40 41 41 41 41 46 59 57 57 57 56 56 55 55 55 55 55 55 55 54 54 53 54 54 54 54 55 55 55 52 46 45 44 42 46 49 49 48 50
52 52 52 53 53 53 53 52 52 52 52 52 52 52 52 52 53 53 54 55 55 54 54 41 40 40 40 41 40 45 58 56 57 57 57 56 56 55 55 55 55 55 54 54 51 46 52 53 53 54 54 54 55 54 54 53 52 51 50 50 50 50 50
51 51 50 50 51 51 51 51 50 50 51 51 53 53 53 53 52 52 53 54 55 54 52 39 40 40 40 40 40 54 57 56 56 57 56 56 56 56 56 55 56 55 54 53 45 37 42 50 54 54 53 54 54 55 55 51 46 44 48 49 50 50 50
51 50 49 48 49 49 48 48 49 50 50 50 50 50 51 51 52 51 51 53 54 54 52 42 39 40 40 39 46 58 56 57 57 56 55 55 56 55 55 56 56 56 54 54 42 37 37 42 55 53 53 52 53 54 54 55 48 44 42 41 41 40 40
51 50 49 48 47 47 48 49 49 50 49 48 48 49 50 50 50 50 50 51 54 54 53 45 39 40 40 40 49 57 57 57 55 55 54 54 56 55 54 48 52 55 54 53 39 37 36 46 54 53 52 51 52 53 53 54 54 53 47 45 44 43 43
50 50 49 48 47 47 48 49 50 50 49 49 49 49 49 49 48 49 50 51 49 53 53 47 39 39 40 40 49 57 57 56 54 54 54 53 54 55 54 51 45 48 50 46 36 38 36 46 54 53 52 51 51 52 52 52 52 51 52 53 53 54 52
49 49 49 48 48 49 50 50 49 49 48 50 50 49 48 49 48 48 48 50 50 53 52 51 46 38 40 40 43 56 57 55 54 52 54 54 53 54 55 55 48 38 38 37 37 36 38 38 51 53 53 52 51 50 52 51 51 51 51 52 52 53 53
50 50 50 48 49 50 50 49 48 48 47 48 48 47 47 47 48 47 48 49 50 50 52 51 48 38 39 40 40 45 54 55 55 54 53 53 55 54 55 56 57 42 38 38 37 36 38 37 40 52 53 52 52 48 44 50 51 47 52 52 53 54 55
52 51 51 50 49 49 49 49 49 49 49 47 46 45 46 46 47 48 47 48 49 50 49 48 50 40 39 39 39 41 52 54 54 54 53 54 54 55 55 57 58 45 37 38 37 37 36 38 36 50 53 44 39 37 45 49 52 53 54 54 54 54 54
51 51 49 50 49 48 49 49 49 49 47 47 46 45 45 46 47 46 46 47 48 49 50 49 43 45 39 39 38 39 41 48 40 52 53 53 53 54 56 56 54 41 37 37 38 37 37 36 39 51 42 38 38 36 40 52 53 52 53 54 53 53 53
51 50 50 50 51 50 49 49 49 48 47 47 47 46 46 47 47 46 46 47 49 50 50 51 44 43 44 37 38 38 38 40 40 52 54 54 55 55 55 56 52 39 37 37 37 37 37 38 48 42 38 37 36 39 51 52 53 53 51 53 52 52 52
MSLP
1021.18 1021.62 1021.90 1022.10 1022.22 1022.22 1022.34 1022.50 1022.58 1022.70 1022.70 1022.66 1022.74 1022.82 1022.86 1022.98 1023.10 1023.22 1023.30 1023.46 1023.66 1023.86 1023.98 1024.18 1024.34 1024.38 1024.34 1024.46 1024.50 1024.50 1024.46 1024.46 1024.38 1024.14 1024.30 1024.22 1024.10 1025.06 1024.98 1024.86 1024.86 1024.86 1024.74 1024.70 1024.46 1023.74 1023.46 1024.10 1024.94 1025.30 1025.58 1025.86 1025.74 1025.82 1025.74 1025.70 1025.66 1025.62 1025.62 1025.42 1025.10 1024.90 1024.86
1021.34 1021.50 1021.78 1021.98 1022.22 1022.34 1022.50 1022.66 1022.70 1022.82 1022.94 1022.98 1023.02 1023.10 1023.14 1023.18 1023.30 1023.46 1023.58 1023.78 1023.98 1024.14 1024.26 1024.46 1024.62 1024.66 1024.70 1024.78 1024.82 1024.86 1024.94 1024.94 1024.86 1024.82 1024.62 1024.78 1024.70 1024.90 1024.90 1025.18 1025.18 1025.14 1025.22 1025.26 1025.22 1024.70 1024.10 1024.10 1024.66 1025.34 1025.58 1025.82 1025.82 1025.94 1025.94 1025.82 1025.74 1025.62 1025.54 1025.46 1025.22 1024.94 1024.82
1021.30 1021.58 1021.74 1022.06 1022.26 1022.38 1022.66 1022.78 1022.78 1022.90 1023.06 1023.22 1023.30 1023.30 1023.34 1023.42 1023.54 1023.66 1023.82 1024.10 1024.30 1024.46 1024.58 1024.78 1024.90 1024.98 1025.10 1025.18 1025.30 1025.38 1025.38 1025.26 1025.26 1025.26 1025.22 1025.26 1025.26 1025.38 1025.18 1025.10 1024.90 1024.94 1024.86 1025.06 1025.26 1025.14 1025.10 1024.66 1024.66 1025.10 1025.58 1025.50 1025.42 1025.98 1026.06 1025.94 1025.74 1025.58 1025.34 1025.30 1025.14 1024.94 1024.82
1021.30 1021.50 1021.78 1022.06 1022.22 1022.42 1022.58 1022.82 1022.94 1023.14 1023.22 1023.34 1023.42 1023.54 1023.58 1023.66 1023.82 1023.94 1024.14 1024.38 1024.58 1024.78 1024.94 1025.02 1025.14 1025.26 1025.42 1025.58 1025.66 1025.70 1025.70 1025.62 1025.66 1025.70 1025.70 1025.66 1025.62 1025.70 1025.66 1025.50 1025.50 1025.46 1025.50 1025.58 1025.74 1025.54 1025.34 1025.22 1024.78 1025.06 1025.14 1025.06 1025.22 1025.38 1025.86 1025.94 1025.74 1025.54 1025.38 1025.26 1025.10 1024.94 1024.78
1021.02 1021.26 1021.42 1021.74 1021.98 1022.38 1022.74 1022.94 1023.06 1023.22 1023.38 1023.46 1023.54 1023.66 1023.90 1024.02 1024.14 1024.38 1024.58 1024.78 1024.98 1025.14 1025.26 1025.30 1025.38 1025.50 1025.62 1025.74 1025.82 1025.86 1025.98 1026.02 1025.98 1025.86 1025.90 1026.02 1025.98 1025.94 1025.98 1025.94 1026.02 1026.10 1026.10 1026.06 1026.22 1026.14 1025.90 1025.98 1025.54 1025.30 1025.10 1025.34 1025.10 1025.18 1025.58 1025.82 1025.62 1025.50 1025.38 1025.22 1025.06 1024.90 1024.74
1020.90 1021.06 1021.30 1021.70 1022.06 1022.34 1022.66 1022.82 1022.94 1023.14 1023.34 1023.50 1023.70 1023.90 1024.22 1024.34 1024.46 1024.70 1024.90 1025.10 1025.34 1025.46 1025.50 1025.54 1025.70 1025.78 1025.90 1025.98 1026.10 1026.18 1026.22 1026.22 1026.22 1026.22 1026.22 1026.34 1026.18 1026.06 1026.18 1026.30 1026.30 1026.34 1026.50 1026.62 1026.62 1026.54 1026.58 1026.50 1026.14 1025.54 1025.34 1025.38 1025.26 1025.14 1025.38 1025.42 1025.30 1025.22 1025.42 1025.10 1025.06 1024.90 1024.70
1020.94 1021.18 1021.42 1021.74 1022.14 1022.30 1022.42 1022.62 1022.78 1023.02 1023.30 1023.62 1023.86 1024.14 1024.38 1024.54 1024.74 1024.98 1025.22 1025.42 1025.54 1025.58 1025.66 1025.78 1025.90 1026.06 1026.10 1026.18 1026.38 1026.42 1026.50 1026.54 1026.54 1026.54 1026.54 1026.54 1026.50 1026.50 1026.42 1026.54 1026.66 1026.78 1026.94 1027.02 1027.02 1026.94 1026.90 1026.62 1026.54 1026.46 1025.86 1025.58 1025.58 1025.14 1025.46 1025.30 1025.50 1025.14 1025.06 1025.02 1024.98 1024.90 1024.70
1020.94 1021.26 1021.58 1021.94 1022.26 1022.46 1022.58 1022.74 1022.98 1023.14 1023.38 1023.74 1024.02 1024.34 1024.58 1024.82 1025.06 1025.26 1025.46 1025.58 1025.70 1025.78 1025.90 1026.02 1026.18 1026.30 1026.42 1026.50 1026.62 1026.70 1026.74 1026.78 1026.78 1026.70 1026.74 1026.74 1026.82 1026.94 1026.94 1026.86 1027.02 1027.14 1027.30 1027.34 1027.30 1027.30 1027.22 1027.18 1027.02 1026.82 1026.22 1025.34 1025.06 1025.34 1025.34 1025.14 1025.14 1025.58 1025.78 1024.94 1024.86 1024.78 1024.62
1020.98 1021.38 1021.86 1022.22 1022.42 1022.50 1022.70 1022.94 1023.22 1023.38 1023.58 1023.90 1024.22 1024.50 1024.78 1024.94 1025.22 1025.46 1025.62 1025.78 1025.90 1026.02 1026.18 1026.30 1026.42 1026.50 1026.70 1026.74 1026.82 1026.90 1026.94 1026.98 1026.94 1026.94 1026.98 1027.06 1027.18 1027.26 1027.22 1027.22 1027.22 1027.54 1027.62 1027.58 1027.54 1027.62 1027.58 1027.46 1027.26 1027.06 1026.66 1026.42 1026.02 1025.22 1025.30 1025.18 1025.18 1025.26 1025.26 1025.22 1024.70 1024.62 1024.58
1021.26 1021.62 1021.98 1022.34 1022.54 1022.74 1022.94 1023.18 1023.38 1023.62 1023.82 1024.06 1024.38 1024.66 1024.94 1025.14 1025.38 1025.58 1025.82 1025.98 1026.14 1026.26 1026.42 1026.54 1026.66 1026.78 1026.86 1026.90 1026.98 1027.06 1027.06 1027.14 1027.06 1027.18 1027.26 1027.30 1027.46 1027.46 1027.54 1027.66 1027.66 1027.78 1027.86 1027.86 1027.82 1027.78 1027.70 1027.58 1027.46 1027.38 1027.26 1027.30 1027.14 1026.70 1026.50 1025.86 1025.74 1025.94 1025.06 1025.26 1025.18 1024.54 1024.62
1021.38 1021.74 1022.02 1022.30 1022.58 1022.82 1023.14 1023.42 1023.62 1023.78 1023.98 1024.22 1024.46 1024.78 1025.02 1025.30 1025.54 1025.74 1025.90 1026.10 1026.34 1026.50 1026.62 1026.74 1026.82 1026.98 1027.02 1027.06 1027.14 1027.14 1027.22 1027.22 1027.26 1027.38 1027.50 1027.58 1027.70 1027.74 1027.86 1027.90 1027.94 1027.98 1028.10 1028.02 1028.06 1027.98 1027.90 1027.78 1027.70 1027.66 1027.66 1027.66 1027.62 1027.54 1027.50 1027.10 1026.26 1026.02 1025.94 1025.42 1025.22 1025.02 1024.66
1021.54 1021.78 1022.06 1022.34 1022.62 1022.86 1023.18 1023.42 1023.54 1023.74 1024.06 1024.26 1024.50 1024.82 1025.06 1025.34 1025.58 1025.82 1025.98 1026.26 1026.46 1026.66 1026.78 1026.94 1027.02 1027.10 1027.14 1027.22 1027.26 1027.30 1027.38 1027.38 1027.46 1027.66 1027.82 1027.90 1028.02 1028.02 1028.14 1028.22 1028.14 1028.18 1028.18 1028.18 1028.14 1028.06 1028.02 1027.90 1027.82 1027.78 1027.86 1027.86 1027.98 1027.98 1027.78 1027.30 1026.70 1025.70 1026.06 1025.82 1025.42 1025.26 1024.98
1021.50 1021.78 1022.06 1022.34 1022.62 1022.86 1023.10 1023.38 1023.62 1023.82 1024.10 1024.30 1024.54 1024.82 1025.02 1025.30 1025.58 1025.82 1026.06 1026.34 1026.58 1026.74 1026.94 1027.06 1027.14 1027.22 1027.26 1027.30 1027.34 1027.42 1027.58 1027.58 1027.70 1027.86 1028.06 1028.18 1028.26 1028.30 1028.30 1028.34 1028.34 1028.26 1028.26 1028.14 1028.18 1028.18 1028.14 1028.14 1028.06 1027.94 1027.94 1027.94 1028.02 1028.10 1027.90 1027.54 1027.18 1026.38 1025.90 1025.94 1025.66 1025.26 1025.06
1021.62 1021.86 1022.10 1022.30 1022.50 1022.86 1023.18 1023.38 1023.58 1023.82 1024.10 1024.38 1024.58 1024.82 1025.06 1025.34 1025.58 1025.86 1026.10 1026.38 1026.58 1026.86 1027.02 1027.18 1027.22 1027.30 1027.34 1027.46 1027.54 1027.66 1027.74 1027.78 1027.86 1028.06 1028.22 1028.42 1028.42 1028.42 1028.38 1028.38 1028.42 1028.50 1028.42 1028.30 1028.22 1028.18 1028.18 1028.14 1028.10 1028.06 1028.02 1027.90 1027.90 1027.98 1027.98 1027.70 1027.30 1026.54 1025.78 1025.74 1025.58 1025.26 1024.98
1021.50 1021.74 1022.06 1022.30 1022.58 1022.94 1023.26 1023.42 1023.66 1023.90 1024.14 1024.46 1024.58 1024.78 1025.06 1025.42 1025.66 1025.90 1026.18 1026.42 1026.66 1026.86 1027.02 1027.14 1027.30 1027.34 1027.46 1027.62 1027.78 1027.86 1027.94 1027.98 1028.06 1028.18 1028.30 1028.46 1028.58 1028.54 1028.46 1028.42 1028.50 1028.58 1028.50 1028.46 1028.42 1028.30 1028.26 1028.18 1028.10 1027.98 1028.02 1027.98 1027.78 1027.82 1028.02 1027.86 1027.30 1026.94 1026.26 1025.66 1025.58 1025.30 1024.90
1021.34 1021.66 1021.94 1022.26 1022.66 1022.98 1023.30 1023.50 1023.66 1023.90 1024.18 1024.50 1024.70 1024.82 1025.14 1025.46 1025.70 1025.98 1026.26 1026.50 1026.70 1026.86 1026.98 1027.18 1027.34 1027.42 1027.54 1027.66 1027.82 1027.98 1028.06 1028.10 1028.18 1028.30 1028.38 1028.50 1028.54 1028.54 1028.50 1028.54 1028.54 1028.54 1028.46 1028.42 1028.42 1028.42 1028.46 1028.38 1028.22 1028.10 1028.06 1027.94 1027.90 1027.78 1027.70 1027.74 1027.54 1027.02 1026.66 1025.98 1025.62 1025.22 1024.86
1021.26 1021.58 1021.94 1022.30 1022.74 1023.06 1023.30 1023.50 1023.70 1023.90 1024.18 1024.50 1024.78 1025.06 1025.26 1025.46 1025.78 1026.02 1026.30 1026.54 1026.74 1026.86 1027.02 1027.22 1027.30 1027.42 1027.54 1027.70 1027.86 1028.02 1028.14 1028.22 1028.30 1028.34 1028.42 1028.46 1028.50 1028.46 1028.54 1028.58 1028.62 1028.54 1028.42 1028.42 1028.42 1028.38 1028.38 1028.38 1028.26 1028.06 1027.98 1027.86 1027.70 1027.66 1027.54 1027.42 1027.30 1027.18 1026.74 1026.30 1025.46 1025.34 1024.90
1021.26 1021.58 1021.94 1022.38 1022.82 1023.10 1023.34 1023.54 1023.74 1023.94 1024.26 1024.54 1024.82 1025.14 1025.42 1025.58 1025.78 1026.02 1026.26 1026.46 1026.70 1026.86 1026.98 1027.10 1027.22 1027.42 1027.66 1027.78 1027.90 1028.06 1028.18 1028.30 1028.38 1028.46 1028.50 1028.58 1028.58 1028.54 1028.58 1028.62 1028.62 1028.58 1028.50 1028.46 1028.46 1028.42 1028.42 1028.42 1028.22 1028.14 1028.02 1027.74 1027.58 1027.54 1027.34 1027.22 1027.10 1026.94 1026.70 1026.30 1025.74 1025.22 1024.94
1021.26 1021.58 1022.02 1022.46 1022.78 1023.10 1023.34 1023.54 1023.78 1024.02 1024.18 1024.54 1024.90 1025.10 1025.38 1025.58 1025.66 1025.90 1026.14 1026.38 1026.58 1026.78 1026.94 1027.06 1027.18 1027.34 1027.58 1027.82 1027.98 1028.14 1028.26 1028.38 1028.42 1028.46 1028.54 1028.54 1028.58 1028.58 1028.58 1028.58 1028.62 1028.58 1028.58 1028.54 1028.58 1028.58 1028.50 1028.38 1028.26 1028.14 1028.06 1027.90 1027.66 1027.50 1027.34 1027.10 1026.98 1026.82 1026.62 1026.14 1025.70 1025.18 1024.82
1021.22 1021.62 1022.06 1022.42 1022.74 1023.02 1023.26 1023.54 1023.74 1024.02 1024.26 1024.50 1024.86 1025.14 1025.38 1025.54 1025.74 1025.82 1026.10 1026.34 1026.54 1026.74 1026.90 1027.02 1027.14 1027.34 1027.58 1027.82 1028.02 1028.18 1028.34 1028.42 1028.50 1028.54 1028.54 1028.54 1028.58 1028.62 1028.58 1028.62 1028.62 1028.62 1028.58 1028.58 1028.58 1028.66 1028.58 1028.38 1028.26 1028.06 1028.02 1027.98 1027.74 1027.62 1027.30 1027.02 1026.90 1026.74 1026.46 1026.10 1025.54 1025.22 1024.86
1021.26 1021.62 1022.02 1022.42 1022.70 1022.94 1023.26 1023.54 1023.78 1024.06 1024.34 1024.62 1024.82 1025.02 1025.30 1025.50 1025.82 1025.94 1026.14 1026.34 1026.50 1026.70 1026.90 1027.02 1027.14 1027.34 1027.54 1027.78 1027.98 1028.18 1028.30 1028.42 1028.46 1028.58 1028.58 1028.58 1028.58 1028.62 1028.66 1028.62 1028.62 1028.62 1028.58 1028.62 1028.70 1028.74 1028.74 1028.58 1028.34 1028.06 1028.02 1027.98 1027.82 1027.66 1027.38 1027.10 1026.86 1026.62 1026.34 1026.02 1025.58 1025.14 1024.86
1021.34 1021.70 1022.10 1022.46 1022.78 1023.06 1023.30 1023.58 1023.90 1024.14 1024.42 1024.62 1024.90 1025.06 1025.26 1025.50 1025.82 1026.06 1026.26 1026.42 1026.58 1026.74 1026.82 1026.98 1027.14 1027.26 1027.46 1027.74 1027.94 1028.10 1028.22 1028.30 1028.38 1028.46 1028.46 1028.50 1028.54 1028.62 1028.62 1028.70 1028.66 1028.66 1028.90 1029.10 1029.30 1029.34 1029.34 1029.18 1028.66 1028.22 1028.10 1028.06 1027.90 1027.74 1027.50 1027.26 1026.94 1026.66 1026.34 1026.06 1025.54 1025.22 1024.90
1021.46 1021.78 1022.10 1022.46 1022.78 1023.06 1023.38 1023.74 1024.02 1024.26 1024.46 1024.70 1024.98 1025.22 1025.38 1025.54 1025.70 1025.94 1026.22 1026.42 1026.58 1026.78 1026.82 1027.02 1027.26 1027.46 1027.50 1027.62 1027.82 1028.06 1028.22 1028.26 1028.26 1028.30 1028.34 1028.42 1028.54 1028.58 1028.66 1028.66 1028.82 1029.06 1029.06 1029.06 1029.10 1029.18 1029.26 1029.30 1029.26 1028.94 1028.66 1028.42 1028.18 1027.90 1027.70 1027.50 1027.22 1026.90 1026.62 1026.18 1025.78 1025.50 1025.02
1021.42 1021.78 1022.06 1022.38 1022.82 1023.10 1023.42 1023.78 1024.06 1024.30 1024.58 1024.86 1025.10 1025.30 1025.46 1025.58 1025.70 1025.82 1026.02 1026.30 1026.54 1026.70 1026.82 1027.06 1027.50 1027.62 1027.74 1027.82 1027.82 1027.98 1028.14 1028.22 1028.22 1028.22 1028.22 1028.26 1028.34 1028.50 1028.58 1028.62 1028.66 1028.82 1028.74 1028.70 1028.74 1028.94 1028.98 1028.98 1028.90 1028.90 1028.98 1029.06 1028.90 1028.58 1028.18 1027.90 1027.54 1027.30 1026.90 1026.42 1026.02 1025.66 1025.38
1021.38 1021.74 1022.10 1022.42 1022.78 1023.06 1023.42 1023.78 1024.06 1024.34 1024.66 1024.98 1025.14 1025.30 1025.46 1025.50 1025.66 1025.86 1026.02 1026.22 1026.42 1026.58 1026.74 1027.18 1027.50 1027.66 1027.82 1027.94 1027.90 1027.86 1027.98 1028.10 1028.18 1028.10 1028.10 1028.14 1028.18 1028.26 1028.42 1028.50 1028.62 1028.70 1028.74 1028.82 1028.62 1028.46 1028.46 1028.58 1028.62 1028.62 1028.58 1028.54 1028.58 1028.66 1028.74 1028.54 1028.22 1027.58 1027.22 1026.82 1026.26 1025.90 1025.58
1021.30 1021.74 1022.10 1022.42 1022.74 1023.06 1023.38 1023.66 1024.02 1024.34 1024.62 1024.86 1025.10 1025.30 1025.34 1025.54 1025.74 1025.90 1026.06 1026.14 1026.30 1026.50 1026.66 1027.34 1027.46 1027.62 1027.74 1027.90 1028.02 1027.86 1027.78 1027.90 1027.98 1028.02 1028.06 1028.10 1028.10 1028.18 1028.26 1028.30 1028.30 1028.42 1028.66 1028.82 1028.54 1028.42 1028.30 1028.18 1028.26 1028.34 1028.22 1028.02 1027.98 1028.10 1028.22 1028.38 1028.42 1028.14 1027.54 1027.02 1026.58 1026.10 1025.74
1021.26 1021.66 1022.02 1022.42 1022.78 1023.10 1023.34 1023.58 1023.90 1024.18 1024.50 1024.90 1025.10 1025.26 1025.46 1025.62 1025.82 1025.94 1026.02 1026.06 1026.22 1026.42 1026.58 1027.22 1027.46 1027.58 1027.66 1027.82 1027.98 1027.94 1027.58 1027.82 1027.86 1027.90 1027.98 1028.06 1028.14 1028.22 1028.30 1028.26 1028.22 1028.22 1028.38 1028.50 1028.54 1028.54 1028.34 1028.22 1028.10 1027.94 1027.74 1027.62 1027.46 1027.50 1027.58 1027.70 1027.70 1027.70 1027.50 1027.10 1026.78 1026.42 1025.94
1021.18 1021.66 1022.10 1022.42 1022.74 1023.02 1023.26 1023.62 1023.98 1024.26 1024.50 1024.70 1024.90 1025.10 1025.38 1025.58 1025.78 1025.90 1025.98 1026.02 1026.18 1026.46 1026.62 1027.14 1027.34 1027.50 1027.58 1027.74 1027.90 1027.90 1027.54 1027.74 1027.78 1027.86 1027.90 1028.02 1028.10 1028.18 1028.38 1028.42 1028.26 1028.22 1028.34 1028.42 1028.78 1029.10 1028.50 1028.26 1028.14 1027.90 1027.74 1027.62 1027.46 1027.42 1027.38 1027.38 1027.42 1027.42 1027.26 1027.06 1026.82 1026.54 1026.14
1021.18 1021.70 1022.18 1022.54 1022.78 1023.02 1023.38 1023.66 1023.98 1024.30 1024.54 1024.70 1024.82 1025.02 1025.30 1025.46 1025.74 1025.90 1026.02 1026.06 1026.14 1026.34 1026.74 1027.22 1027.34 1027.46 1027.58 1027.66 1027.90 1027.62 1027.50 1027.66 1027.70 1027.74 1027.90 1028.02 1028.06 1028.14 1028.22 1028.26 1028.14 1028.14 1028.30 1028.38 1028.98 1029.26 1029.06 1028.50 1027.94 1027.78 1027.66 1027.50 1027.38 1027.26 1027.22 1027.42 1027.58 1027.58 1027.46 1027.22 1026.94 1026.66 1026.30
1021.10 1021.66 1022.18 1022.54 1022.82 1023.18 1023.54 1023.86 1024.06 1024.22 1024.50 1024.70 1024.90 1025.06 1025.26 1025.46 1025.66 1025.86 1026.14 1026.10 1026.10 1026.30 1026.66 1027.26 1027.42 1027.50 1027.58 1027.62 1027.58 1027.18 1027.38 1027.38 1027.50 1027.66 1027.78 1027.98 1028.02 1028.14 1028.22 1028.18 1028.06 1028.02 1028.18 1028.30 1028.94 1029.06 1028.98 1028.54 1027.82 1027.78 1027.70 1027.62 1027.42 1027.18 1027.02 1027.06 1027.10 1027.06 1027.02 1026.94 1026.74 1026.50 1026.22
1021.02 1021.54 1022.02 1022.38 1022.70 1023.10 1023.50 1023.78 1024.02 1024.10 1024.26 1024.62 1024.86 1025.02 1025.22 1025.46 1025.74 1025.90 1026.06 1026.10 1025.98 1026.22 1026.54 1027.14 1027.46 1027.54 1027.58 1027.46 1027.18 1027.06 1027.18 1027.22 1027.54 1027.66 1027.82 1028.02 1027.94 1028.06 1028.26 1028.58 1028.30 1028.06 1028.10 1028.30 1028.86 1028.94 1028.86 1028.34 1027.78 1027.82 1027.78 1027.74 1027.50 1027.22 1027.14 1027.06 1026.82 1026.54 1026.38 1026.22 1026.10 1025.94 1025.66
1020.94 1021.38 1021.78 1022.30 1022.70 1023.02 1023.26 1023.58 1023.82 1023.98 1024.14 1024.34 1024.62 1024.94 1025.22 1025.46 1025.86 1026.02 1026.06 1026.10 1026.30 1026.30 1026.54 1027.18 1027.58 1027.58 1027.66 1027.54 1027.30 1026.98 1027.06 1027.26 1027.74 1027.74 1027.74 1027.94 1027.98 1027.94 1028.18 1028.42 1028.54 1028.38 1028.34 1028.58 1028.82 1028.86 1028.78 1028.30 1027.82 1027.86 1027.94 1027.82 1027.62 1027.50 1027.54 1027.54 1027.30 1026.98 1026.58 1026.18 1025.78 1025.54 1025.14
1020.94 1021.26 1021.66 1022.22 1022.54 1022.74 1022.94 1023.38 1023.78 1023.94 1024.18 1024.26 1024.54 1024.90 1025.26 1025.42 1025.78 1026.10 1026.30 1026.34 1026.46 1026.38 1026.46 1026.86 1027.50 1027.86 1027.82 1027.74 1027.46 1027.06 1026.98 1027.10 1027.38 1027.70 1027.66 1027.54 1027.74 1027.82 1027.86 1027.94 1028.42 1028.62 1028.62 1028.66 1028.66 1028.74 1028.66 1028.50 1028.02 1027.90 1027.90 1027.82 1027.82 1027.70 1027.74 1027.74 1027.54 1027.42 1027.02 1026.54 1026.10 1025.66 1025.26
1020.82 1021.18 1021.46 1021.86 1022.34 1022.58 1022.78 1023.22 1023.70 1023.94 1024.18 1024.38 1024.66 1025.02 1025.34 1025.54 1025.78 1026.10 1026.30 1026.38 1026.38 1026.50 1026.50 1026.70 1027.34 1027.86 1028.02 1027.94 1027.82 1027.50 1027.22 1027.10 1027.10 1027.38 1027.50 1027.54 1027.34 1027.42 1027.50 1027.42 1027.50 1028.34 1028.58 1028.58 1028.54 1028.50 1028.46 1028.50 1028.46 1028.06 1027.94 1027.90 1028.02 1028.34 1028.58 1027.94 1027.34 1027.34 1026.86 1026.42 1025.90 1025.42 1024.94
1020.58 1020.94 1021.38 1021.78 1022.18 1022.50 1022.74 1023.14 1023.50 1023.82 1024.06 1024.42 1024.82 1025.14 1025.42 1025.66 1025.78 1025.98 1026.30 1026.42 1026.54 1026.58 1026.74 1026.78 1026.94 1027.66 1027.82 1027.78 1027.74 1027.62 1027.22 1027.10 1027.14 1027.18 1027.34 1027.30 1027.34 1027.26 1027.26 1027.26 1027.26 1028.02 1028.38 1028.42 1028.42 1028.34 1028.34 1028.30 1028.42 1028.14 1027.82 1028.14 1028.42 1028.62 1028.58 1028.06 1027.46 1026.94 1026.50 1026.06 1025.62 1025.22 1024.86
1020.26 1020.66 1021.18 1021.58 1021.94 1022.34 1022.70 1023.10 1023.46 1023.74 1024.06 1024.42 1024.70 1025.14 1025.46 1025.58 1025.70 1025.98 1026.22 1026.34 1026.50 1026.54 1026.58 1026.82 1026.94 1027.18 1027.66 1027.74 1027.74 1027.74 1027.50 1027.34 1027.50 1027.26 1027.14 1027.18 1027.18 1027.14 1027.18 1027.30 1027.50 1028.02 1028.22 1028.34 1028.34 1028.26 1028.22 1028.22 1028.10 1027.82 1027.94 1028.14 1028.34 1028.50 1028.46 1027.58 1027.22 1026.90 1026.38 1025.98 1025.66 1025.26 1024.94
1020.14 1020.58 1021.06 1021.42 1021.70 1022.02 1022.50 1022.86 1023.26 1023.66 1023.98 1024.18 1024.50 1024.98 1025.26 1025.38 1025.54 1025.90 1026.06 1026.10 1026.22 1026.42 1026.62 1026.62 1027.02 1027.14 1027.38 1027.58 1027.62 1027.66 1027.58 1027.46 1027.46 1027.18 1027.06 1026.90 1026.94 1027.06 1027.06 1027.18 1027.54 1028.06 1028.18 1028.22 1028.18 1028.10 1028.06 1028.06 1027.70 1027.66 1027.90 1028.06 1028.14 1028.18 1027.74 1027.22 1026.86 1026.58 1026.38 1025.86 1025.50 1025.22 1024.94
Wind_Speed
6 7 6 5 5 5 6 6 5 5 5 5 6 6 6 6 6 6 6 6 6 6 5 5 5 5 5 6 6 6 5 4 4 3 4 4 5 5 5 7 9 8 8 9 7 3 3 5 5 5 6 6 6 6 7 8 8 7 7 6 7 7 6
7 8 7 6 6 5 7 5 5 5 6 6 6 6 6 7 7 7 7 7 7 6 5 6 6 7 7 7 6 6 6 6 5 5 5 5 4 4 4 5 6 7 8 7 6 6 4 4 5 4 3 3 5 6 5 5 6 6 6 6 7 8 7
7 7 7 7 6 5 6 5 5 5 5 5 6 7 7 7 8 7 7 8 7 6 6 7 7 8 7 8 7 7 7 8 6 6 7 6 6 6 5 3 4 4 5 6 6 5 6 7 6 4 2 2 3 4 3 3 5 7 7 6 6 8 8
10 9 8 7 6 5 6 5 5 5 5 5 5 6 7 8 8 8 7 7 7 6 6 6 6 7 7 7 7 9 9 8 7 7 8 8 7 7 7 6 8 7 7 7 6 6 6 5 4 5 3 4 5 4 5 4 2 5 7 7 7 8 8
11 8 9 9 7 7 6 6 5 5 5 5 6 6 6 7 7 7 8 7 6 6 6 6 6 7 7 7 6 6 7 7 7 7 7 8 8 7 8 7 8 7 7 7 6 6 6 5 4 4 4 1 1 4 3 2 2 3 6 7 7 8 8
8 8 8 8 6 7 6 6 6 6 6 6 6 7 7 7 7 7 6 6 6 6 7 7 8 8 7 7 7 8 7 8 7 7 7 8 7 7 8 8 7 8 8 7 6 6 4 4 4 4 4 2 3 4 4 4 5 2 4 7 8 7 8
8 7 6 7 6 5 5 6 6 6 6 6 7 6 6 7 6 7 7 7 7 8 8 8 8 8 8 8 8 8 8 7 7 8 9 9 9 9 8 8 8 8 8 7 7 6 6 5 6 6 3 1 2 4 2 3 4 6 6 6 7 6 8
7 7 6 5 5 6 5 6 6 6 7 6 7 6 7 8 8 7 7 7 7 8 8 8 7 8 8 7 7 8 7 7 8 8 9 10 10 10 10 8 8 8 7 7 6 6 6 6 6 6 7 6 2 2 5 4 3 4 8 8 7 6 9
7 7 6 5 5 5 6 6 7 6 6 7 7 8 7 8 8 8 8 8 8 9 8 8 8 7 7 8 8 7 8 6 8 10 9 10 10 11 10 9 9 8 7 6 6 6 5 5 6 7 8 8 8 7 6 6 7 6 8 10 8 9 11
8 8 7 7 7 6 6 6 6 7 7 7 7 7 8 8 8 8 8 8 8 8 9 8 8 8 7 7 7 8 9 8 9 9 8 9 9 9 9 10 8 7 6 6 5 5 5 5 6 7 8 8 7 6 7 8 7 8 10 11 10 11 12
8 8 8 9 7 7 7 6 7 7 7 7 7 7 8 9 9 9 8 8 8 8 9 8 8 8 8 7 8 8 8 8 9 8 8 9 9 8 8 8 7 7 6 6 6 6 6 6 6 7 6 6 6 6 5 7 7 4 8 9 9 10 12
7 8 7 8 7 8 9 8 7 8 8 8 8 9 9 9 8 8 8 9 8 9 8 8 8 7 8 8 8 8 7 8 9 9 8 8 7 8 9 9 8 7 7 7 7 7 7 6 6 5 5 4 5 4 5 5 7 4 6 9 9 10 11
8 8 8 9 8 9 9 8 9 9 8 8 8 9 9 9 9 9 8 9 9 9 9 8 8 8 7 7 7 8 8 9 10 9 8 7 6 7 9 9 8 7 6 6 7 6 6 6 5 5 5 4 3 3 3 5 7 9 7 7 9 10 11
10 9 9 9 9 9 8 8 8 8 8 8 9 9 9 10 10 10 10 9 10 9 9 8 7 7 7 8 8 9 9 9 10 8 8 8 7 8 8 9 9 7 7 7 6 6 6 6 5 4 4 4 3 3 4 5 7 10 8 7 8 9 10
10 9 10 10 9 9 8 8 9 9 9 8 9 9 10 9 9 10 10 10 10 10 9 9 8 7 8 9 8 6 8 9 9 9 8 8 8 6 7 9 9 8 6 7 7 7 6 6 5 5 5 4 5 4 2 5 7 7 11 8 8 9 9
11 12 11 10 10 9 8 9 9 9 9 8 8 9 9 9 10 10 10 10 10 9 10 9 7 8 8 9 9 8 8 9 9 9 9 8 8 7 8 8 8 7 5 7 7 6 5 5 5 5 5 4 5 5 4 3 5 8 10 10 9 9 10
12 11 11 9 10 9 9 8 8 9 9 8 8 7 9 10 10 10 10 10 9 9 10 8 8 8 9 9 9 10 9 8 8 8 8 8 8 8 8 8 7 7 6 8 7 6 6 5 5 5 5 5 5 6 5 5 5 6 8 10 10 10 10
11 11 10 9 11 10 9 9 8 9 9 9 9 9 8 9 10 10 9 10 10 10 10 10 9 9 8 8 9 9 9 8 8 9 8 8 8 8 8 8 7 7 6 7 7 7 6 7 5 5 6 6 6 6 6 6 6 6 8 9 9 8 9
11 11 11 10 11 10 9 9 9 8 10 10 9 9 9 8 9 10 10 10 10 10 10 10 10 10 10 9 8 8 8 8 8 8 8 8 8 7 7 7 7 6 7 7 6 6 6 7 6 6 7 7 7 7 7 7 7 7 8 9 9 10 9
10 11 10 10 9 9 10 9 10 9 9 10 10 9 9 9 8 10 10 9 10 10 10 10 10 10 10 9 9 9 8 8 8 7 7 7 7 7 6 6 6 6 6 6 6 6 6 6 6 7 7 7 7 8 8 8 8 8 8 9 9 9 10
10 10 10 10 10 10 9 9 9 8 9 9 10 10 10 9 8 8 9 9 9 8 9 10 10 10 9 9 8 8 8 7 7 7 7 7 6 6 6 5 5 5 6 6 6 5 5 5 5 7 7 7 7 8 8 8 8 8 8 9 9 10 10
9 10 11 10 10 10 9 9 8 8 8 8 7 8 9 9 9 8 8 8 9 8 9 9 8 8 9 9 8 8 8 7 7 7 7 6 5 5 5 4 5 6 6 7 8 6 5 4 4 7 7 8 8 8 8 8 8 8 8 8 9 10 10
10 10 11 11 10 10 9 9 8 8 8 8 8 8 8 9 10 10 9 9 8 7 7 5 7 9 8 8 8 6 6 7 7 7 6 6 5 5 4 4 4 6 5 5 6 6 5 4 4 4 5 6 8 8 8 8 8 8 9 9 10 10 11
10 11 11 10 10 10 10 8 8 9 8 8 8 8 8 9 9 9 10 9 9 7 6 5 10 9 8 8 7 7 7 6 6 6 6 5 5 5 4 4 4 4 4 5 4 4 4 5 5 5 4 3 3 4 7 8 8 8 8 9 9 9 10
11 11 11 11 11 10 10 9 9 9 8 8 8 8 8 9 9 8 8 9 9 8 7 8 11 10 10 10 8 7 6 6 6 5 5 5 4 4 4 3 3 3 4 5 4 4 4 5 5 6 6 5 2 1 1 3 6 7 8 9 9 10 10
11 11 11 11 10 10 10 10 9 9 9 8 8 9 9 8 8 8 8 9 9 8 6 9 10 11 11 11 9 7 7 6 6 6 5 4 4 3 2 2 3 3 3 3 3 4 5 5 4 4 5 5 2 1 2 3 6 5 7 7 9 10 10
11 11 11 10 10 10 10 10 9 8 8 8 8 8 8 8 8 8 8 9 8 7 6 8 10 10 11 11 11 9 6 7 6 6 6 5 4 3 2 2 2 3 3 3 4 4 4 5 6 6 7 8 8 8 5 4 6 4 6 6 8 9 11
11 11 10 10 10 10 10 8 9 8 8 9 9 9 9 9 8 7 7 7 7 6 4 9 10 10 10 11 11 9 6 6 6 6 5 5 4 3 2 1 1 2 3 3 4 5 4 4 5 6 7 7 8 7 7 7 8 8 7 7 8 9 10
11 10 10 9 9 9 9 9 9 7 7 6 6 6 6 6 7 7 7 7 7 7 5 7 9 10 10 10 10 6 5 6 6 6 6 5 4 3 2 1 1 2 3 3 5 3 4 4 5 7 8 8 8 7 5 3 3 5 5 6 7 8 9
12 11 10 10 9 8 8 8 7 7 8 7 7 7 7 6 6 6 6 6 7 6 6 6 8 9 10 11 8 5 5 6 6 7 6 5 4 3 2 1 1 2 2 3 4 4 3 6 6 7 8 8 7 7 8 7 7 5 5 7 9 10 12
12 12 11 10 9 9 7 6 7 7 8 8 8 7 7 6 5 5 7 7 7 7 6 7 9 9 10 12 9 6 6 6 6 6 5 5 4 4 2 1 1 2 2 3 4 3 4 4 6 6 7 8 8 9 10 10 9 9 11 10 8 9 10
11 11 12 9 9 10 9 8 7 7 6 7 7 7 6 6 5 4 4 5 4 6 6 6 7 8 9 10 7 5 6 5 5 5 5 5 4 3 3 3 2 3 2 2 2 2 3 3 5 5 6 6 7 8 8 9 9 10 11 11 11 12 11
10 11 11 9 8 8 8 7 7 7 6 6 7 6 6 6 6 4 3 4 5 5 7 6 7 7 7 7 7 5 6 6 7 6 5 6 5 4 4 3 5 5 2 1 2 2 0 1 3 4 4 5 6 8 8 9 8 8 9 9 10 10 9
13 11 10 11 9 8 8 8 8 7 8 6 6 6 6 6 5 5 4 4 5 5 4 6 6 7 7 7 6 6 6 7 6 6 6 5 5 4 4 4 2 6 3 1 2 3 1 0 1 2 2 4 5 6 9 8 9 9 8 8 9 8 8
13 11 11 10 9 8 7 8 8 8 7 7 8 7 7 6 6 5 4 3 3 4 4 5 7 8 9 9 9 8 7 7 5 6 6 5 5 4 4 3 2 5 2 1 3 3 3 3 1 3 2 2 5 7 6 8 8 7 7 7 8 8 9
11 8 9 10 10 9 9 9 8 8 9 8 8 8 8 7 7 6 5 4 5 5 5 5 7 7 9 9 9 8 7 4 3 5 6 6 5 4 3 2 2 4 1 2 3 3 4 3 4 4 3 3 5 6 7 6 7 7 7 7 8 8 9
9 9 11 11 10 11 10 9 8 8 8 8 8 8 7 7 7 7 7 6 6 6 5 5 7 7 8 9 9 8 7 7 8 6 5 5 5 3 4 2 2 3 3 4 5 4 5 4 4 3 4 5 6 7 6 6 6 7 8 7 8 9 9
Wind_Direction
134 127 121 104 99 105 96 90 90 80 73 75 81 80 86 87 87 85 84 84 83 80 76 71 69 66 73 66 60 60 57 49 47 83 88 58 82 79 51 64 65 57 54 54 33 24 82 107 85 90 70 52 57 50 47 44 40 35 32 18 18 17 16
117 120 119 115 110 103 97 91 87 87 81 74 78 86 86 89 88 89 86 86 85 83 82 81 74 70 67 68 64 62 64 63 58 62 79 74 81 100 112 88 84 80 74 66 58 42 65 109 85 70 75 78 73 52 38 37 35 31 27 19 15 14 13
127 118 121 121 115 109 100 99 97 97 95 91 85 85 87 86 87 88 87 84 83 81 80 80 81 75 72 71 68 71 73 73 65 66 73 77 74 69 66 82 93 99 83 74 56 59 59 53 69 56 59 44 67 69 40 24 28 25 22 18 13 13 10
130 130 130 125 124 116 112 108 105 99 98 99 98 87 86 88 85 82 83 83 83 84 86 88 83 85 84 82 79 76 70 74 76 78 77 72 76 72 68 65 66 60 59 60 49 45 46 47 58 56 61 49 37 63 45 22 360 21 17 16 10 10 3
140 143 139 137 132 125 123 122 118 114 107 102 98 95 87 88 88 88 88 89 86 90 89 90 90 90 89 86 82 79 79 77 78 77 77 81 79 80 70 66 67 65 62 60 56 47 44 40 34 43 46 24 84 53 39 358 12 14 11 14 9 6 2
139 136 131 124 131 133 136 133 132 124 121 111 102 101 97 97 99 100 99 98 97 93 95 92 89 88 89 87 84 82 79 75 71 73 77 71 71 72 74 67 68 66 63 59 52 50 52 46 29 41 47 41 42 46 40 16 12 21 357 7 2 359 356
135 131 128 132 135 133 135 133 132 128 121 115 113 107 111 106 98 99 99 98 99 100 95 92 93 92 92 92 90 87 83 80 81 81 79 76 71 71 73 73 67 65 64 56 55 51 44 41 36 28 8 90 52 49 52 24 24 13 14 8 356 353 355
137 133 122 121 128 130 126 123 119 123 121 120 116 113 115 110 108 107 105 104 103 100 100 100 99 96 95 97 93 91 88 85 82 80 75 73 73 72 70 72 74 68 64 59 57 53 50 45 37 23 18 25 60 96 22 27 19 38 350 351 358 355 356
124 120 115 117 117 120 122 123 123 121 119 118 116 120 119 119 115 111 106 103 104 102 103 105 107 105 106 104 102 98 93 87 86 81 81 77 75 72 71 73 74 70 65 64 61 59 52 46 42 35 30 33 19 10 7 17 13 20 9 352 347 358 354
129 127 127 126 122 116 115 116 119 118 118 121 121 121 120 116 116 115 112 109 107 109 109 109 111 111 109 106 104 101 94 90 84 79 77 77 75 72 71 69 74 74 69 66 62 57 53 50 49 45 41 37 20 16 2 355 13 348 356 358 347 346 351
126 123 127 132 131 127 123 120 123 127 127 127 127 125 123 121 118 118 115 113 113 115 115 115 113 113 113 106 103 98 96 94 88 82 77 78 76 76 76 75 74 75 68 67 64 56 54 52 49 48 47 40 30 24 1 344 342 354 334 344 349 339 342
127 127 129 131 131 132 134 137 135 127 125 131 131 130 129 127 125 120 118 118 119 117 117 116 119 116 114 110 106 102 96 92 89 85 81 81 82 84 84 82 80 79 75 72 68 64 58 52 50 53 47 41 36 17 354 342 334 5 341 333 337 338 337
133 136 138 139 137 137 138 136 132 132 135 134 133 133 131 130 129 125 124 124 124 124 123 123 122 120 116 110 108 103 99 97 92 90 89 85 89 91 88 83 77 75 74 75 69 64 62 56 48 44 38 32 38 9 343 336 327 322 340 327 325 328 339
140 139 139 139 136 135 136 137 135 134 133 135 137 135 133 133 132 130 130 131 131 132 130 127 125 120 115 111 107 105 105 101 98 97 96 95 95 95 91 88 82 74 69 67 62 61 55 49 46 41 30 16 21 20 356 339 330 323 329 341 330 332 331
144 144 143 141 136 137 139 137 134 136 135 135 141 137 135 133 135 137 135 136 137 136 134 130 129 124 119 115 111 109 107 103 102 100 100 100 100 97 94 89 83 76 66 65 61 55 46 44 36 32 29 11 16 12 3 339 338 325 322 332 335 331 329
148 147 143 141 140 140 138 138 141 138 136 136 138 139 138 139 141 141 138 141 142 141 138 135 133 129 125 122 118 115 112 109 106 105 104 105 104 101 95 89 82 75 68 65 62 56 48 40 28 28 17 11 7 7 2 334 326 331 327 326 330 332 338
147 146 143 141 141 137 138 140 141 137 135 139 137 135 140 142 143 144 143 146 146 145 142 141 138 134 131 128 125 120 117 112 107 104 105 107 106 101 95 89 78 69 65 62 53 50 43 32 26 17 10 5 1 0 349 340 338 322 323 320 332 335 336
148 146 142 141 139 138 140 140 143 139 138 139 139 140 142 145 148 148 148 151 150 149 149 147 141 137 135 135 129 126 121 114 109 106 104 105 105 100 93 84 77 65 57 56 50 44 33 27 22 18 9 5 360 355 346 343 339 333 325 322 323 329 330
149 146 144 143 142 142 144 145 143 142 145 142 143 148 147 152 155 154 152 153 154 153 153 150 145 140 138 136 134 129 126 121 114 110 109 108 105 99 90 81 71 62 53 50 45 35 28 23 18 16 12 4 359 348 345 343 341 334 325 322 324 328 336
146 145 146 146 142 144 147 147 148 147 148 146 148 148 152 152 153 153 151 153 156 156 156 155 149 144 142 140 139 136 134 128 123 116 113 112 107 98 87 76 65 54 49 44 41 32 20 17 12 13 11 1 354 348 344 344 340 333 330 326 328 333 331
145 146 144 144 145 145 146 147 146 144 147 149 152 153 154 153 149 150 151 156 155 156 157 157 154 150 148 147 146 145 142 138 131 128 124 118 111 98 84 70 57 47 45 44 35 37 23 13 3 7 10 358 353 347 345 342 339 337 333 333 334 337 338
141 141 144 146 146 145 147 145 144 147 151 149 148 152 152 151 151 151 153 155 156 158 161 161 160 158 154 154 153 152 150 146 141 135 129 120 113 102 87 70 52 47 47 51 56 56 52 14 356 7 5 358 352 348 347 342 340 336 335 334 336 340 335
143 145 147 150 151 148 146 145 147 150 152 151 149 149 152 155 157 157 158 159 160 163 164 160 154 155 159 159 160 157 157 154 147 138 131 124 117 106 96 85 72 51 47 50 53 38 40 44 36 23 5 358 352 350 346 343 338 338 334 336 342 337 338
147 150 152 150 149 150 149 148 151 152 150 151 153 154 157 160 162 163 163 162 164 168 164 159 155 164 165 165 164 164 162 159 152 143 135 127 121 120 112 90 75 57 47 38 46 32 27 35 25 19 15 359 352 349 350 341 336 335 334 334 335 335 337
150 150 152 152 154 152 149 152 154 154 153 155 158 158 163 166 162 161 161 165 167 169 169 143 161 167 171 175 184 173 168 163 162 152 141 130 122 116 112 101 80 70 47 31 17 18 17 31 18 2 346 339 330 261 219 314 328 330 335 330 328 334 331
151 150 153 153 153 153 153 155 155 157 162 161 157 165 167 161 163 163 164 168 168 167 168 150 167 169 174 181 190 192 176 174 172 162 155 142 123 110 100 87 73 71 69 35 27 19 6 8 8 338 319 309 253 46 321 246 236 282 322 316 327 323 334
150 153 154 153 152 155 158 160 159 159 155 158 165 164 163 163 162 167 171 171 167 165 166 159 171 172 176 181 182 201 187 184 183 173 169 158 147 129 107 73 53 55 59 48 35 7 0 6 356 357 1 3 360 360 353 342 335 298 315 323 323 319 321
149 150 153 153 156 158 159 152 154 158 163 169 169 168 167 168 167 169 171 169 164 163 158 155 175 173 175 176 179 203 187 186 188 181 177 172 166 146 143 125 50 53 61 59 47 356 350 353 351 358 359 3 0 355 351 356 355 346 338 331 324 321 314
147 147 151 153 155 157 154 156 158 158 161 162 163 158 159 164 164 167 168 169 167 163 152 166 173 172 171 170 168 192 179 183 188 182 178 177 177 172 178 187 76 66 63 69 68 14 347 318 353 2 1 359 359 353 0 354 285 278 291 307 318 316 315
152 151 151 153 155 152 153 155 155 158 158 162 162 168 164 166 164 162 163 172 170 161 157 170 174 171 175 167 177 186 174 185 183 183 180 175 175 167 174 173 105 61 71 68 44 353 357 302 9 5 3 358 353 352 359 353 328 301 273 270 274 283 288
155 155 158 159 154 154 156 158 163 167 162 161 166 167 162 159 158 162 166 173 174 165 159 155 171 176 180 178 189 176 182 187 181 184 173 172 175 167 131 72 359 77 61 61 35 346 335 306 11 8 5 356 354 359 358 350 344 341 338 328 321 311 303
156 156 160 156 155 158 161 166 171 169 160 158 157 153 155 154 155 161 165 166 151 164 156 153 177 180 190 189 194 181 184 178 185 188 183 177 182 177 164 163 83 42 51 39 352 328 323 319 10 9 358 350 354 354 357 341 340 339 339 339 336 337 331
153 158 158 155 159 162 156 157 163 164 158 161 155 155 155 158 158 154 147 153 168 178 153 158 175 194 196 198 207 197 189 190 193 182 193 186 181 189 186 175 157 151 155 254 299 292 68 349 346 5 351 350 348 342 345 329 327 326 319 318 320 318 318
163 166 161 158 162 158 157 158 159 161 159 155 147 146 150 149 149 148 163 173 168 160 156 152 162 186 200 198 202 205 191 207 196 185 190 193 199 193 193 195 142 134 170 219 293 314 337 171 271 308 328 336 327 335 320 308 315 308 307 313 315 325 335
165 165 163 156 158 157 152 154 160 162 158 153 150 149 150 153 159 162 159 158 160 163 156 163 157 183 193 196 193 214 211 202 196 187 193 197 198 200 200 187 178 117 125 310 314 304 303 281 210 262 294 298 313 308 299 296 297 308 315 323 334 339 346
160 154 153 161 156 154 154 158 160 160 155 155 154 153 159 162 166 163 163 168 176 182 172 169 175 173 186 192 190 205 229 195 180 212 199 196 194 186 187 187 139 111 253 282 283 292 283 278 241 239 243 274 272 285 274 283 301 304 317 325 331 340 346
155 151 158 163 163 155 159 159 159 163 161 157 157 159 166 171 170 168 173 177 178 183 181 179 177 189 179 193 188 193 183 171 171 203 202 193 186 177 188 184 76 48 297 284 270 266 268 254 262 291 277 270 281 270 280 296 304 315 311 319 334 341 345